COSMOS 2518

Satellite information

Favourite Embed

Satellite Type and Status

PAYLOADIN ORBIT

Key statistics

Satellite COSMOS 2518 at a glance.

Uptime

3026

Days in orbit

Revolutions

≈ 2.0

Per day

Orbit

HEO

HEO

Inclination

63.1

Latest

Satellite identification and parameters

Extended collection of information and parameters for COSMOS 2518.

Object identification

Identified? True

Debris? False

Object name: COSMOS 2518

International designator: 2017-027A

Object number (NORAD): 42719

Object ID (CCSDS): 42719

Country: COMMONWEALTH OF INDEPENDENT STATES (CIS)

Current information (Y/N): Y

RCS size: LARGE

Orbital parameters

Period: 717.435 minutes

Inclination: 63.066 deg

SMA: 26546.976 km

Apoapsis: 39085.464 km

Periapsis: 1252.218 km

RAAN: 284.3234 deg

Eccentricy: 0.71257166

Argument of periapsis: 272.8572 deg

Mean anomaly: 15.0235 deg

Mean motion: 2.00715159 rev/day

Mean motion (dot): 0.00000412 rev/day2

B* drag term: -0.0091942398 1/REarth

Two-line elements (TLE)

Creation date: Sept. 5, 2025, 4:46 a.m.

Reference frame: TEME

Reference center: EARTH

Epoch: Sept. 4, 2025, 8:59 p.m. UTC

TLE line 0: 0 COSMOS 2518

TLE line 1: 1 42719U 17027A 25247.87452013 .00000412 00000-0 -91942-2 0 9995

TLE line 2: 2 42719 63.0660 284.3234 7125717 272.8572 15.0235 2.00715159 60670

Live tracking on map

Real-time ground track for satellite COSMOS 2518.

In-orbit conjunctions

There are no conjunctions computed for COSMOS 2518, at the moment. Check back to stay up to date, as we update our databases every day.

Go to all conjunctions

Associated space launch

The Tundra or EKS (meaning Unified Space System) series of satellites is the next generation of Russian early warning satellites.

COSMOS 2518 was lifted into orbit during the mission ‘Soyuz-2.1b/Fregat | EKS-2 (Tundra 2) (Kosmos 2518)’, on board a Soyuz 2.1b/Fregat space rocket.

The launch took place on May 25, 2017, 6:33 a.m. from 43/4 (43R).

For more information about the launch, click the button.

Launch to space Soyuz-2.1b/Fregat | EKS-2 (Tundra 2) (Kosmos 2518)
Soyuz-2.1b/Fregat | EKS-2 (Tundra 2) (Kosmos 2518)

Agency: N/A

Status: Launch Successful

Launch date: May 25, 2017, 6:33 a.m. UTC

Rocket: Soyuz 2.1b/Fregat

Launch pad: 43/4 (43R)

Location: Plesetsk Cosmodrome, Russian Federation

...

Latest news about this satellite

There are no fresh news available about this satellite. Check back as we update our databases every day.


Newsletter sign-up

Weekly statistics, charts and insights to help you stay on top of the space industry.